Regional Weather Roundup
Issued by NWS Little Rock, AR

Home | Current Version | Previous Version | Text Only | Print | Product List | Glossary Off
Versions: 1 2 3 4 5 6 7 8 9 10 11 12 13 14 15 16 17 18 19 20 21 22 23 24 25 26 27 28 29 30 31 32 33

000
ASUS44 KLZK 210105
RWRLZK

WEATHER ROUNDUP FOR ARKANSAS
NATIONAL WEATHER SERVICE LITTLE ROCK AR
700 PM CST MON FEB 20 2017

NOTE: "FAIR" INDICATES FEW OR NO CLOUDS BELOW 12,000 FEET WITH NO
SIGNIFICANT WEATHER AND/OR OBSTRUCTIONS TO VISIBILITY.

ARZ001-003-010-029-210200-
NORTHWEST ARKANSAS

CITY           SKY/WX    TMP DP  RH WIND       PRES   REMARKS
FAYETTEVILLE   CLOUDY    57  57 100 W3        29.93F
FORT SMITH     LGT RAIN  61  58  90 SW3       29.93R
HARRISON       CLOUDY    62  55  77 CALM      29.92S
BENTONVILLE    CLOUDY    59  54  82 CALM      29.95R
ROGERS         CLOUDY    59  55  87 W5        29.94F
SILOAM SPGS    CLOUDY    57  54  88 W7        29.95R
HIGHFILL       CLOUDY    59  55  87 W6        29.94R
$$

ARZ004-005-016-210200-
NORTH CENTRAL ARKANSAS

CITY           SKY/WX    TMP DP  RH WIND       PRES   REMARKS
BATESVILLE     CLOUDY    66  57  72 SW15G24   29.95R
FLIPPIN        CLOUDY    64  57  77 W5        29.89R
MTN HOME       LGT RAIN  67  58  72 CALM      29.90R
$$

ARZ040-041-210200-
WEST CENTRAL ARKANSAS

CITY           SKY/WX    TMP DP  RH WIND       PRES   REMARKS
MENA           CLOUDY    61  59  94 CALM      29.96R
MOUNT IDA      RAIN      60  58  92 CALM      29.92S FOG
$$

ARZ009-017-025-026-028-210200-
NORTHEAST ARKANSAS

CITY           SKY/WX    TMP DP  RH WIND       PRES   REMARKS
CORNING        FAIR      64  55  72 SE9       29.94S
JONESBORO      MOCLDY    66  53  63 SE7       29.93F
WALNUT RIDGE   MOCLDY    66  54  63 SE12      29.92F
BLYTHEVILLE    MOCLDY    69  53  56 SE7       29.96F
$$

ARZ022-023-033-042-044-210200-
CENTRAL ARKANSAS

CITY           SKY/WX    TMP DP  RH WIND       PRES   REMARKS
LITTLE ROCK    RAIN      64  64 100 SW6       29.91R FOG
N LITTLE ROCK    N/A     65  63  94 CALM      29.91R
JACKSONVILLE   LGT RAIN  64  64 100 SW9       29.90S FOG
SEARCY         CLOUDY    66  62  87 CALM      29.92S
HOT SPRINGS    LGT RAIN  62  59  90 VRB5      29.93S
RUSSELLVILLE   CLOUDY    67  57  70 W5        29.91R
CLINTON        CLOUDY    64  61  88 CALM      29.90S FOG
$$

ARZ036-210200-
EAST ARKANSAS

CITY           SKY/WX    TMP DP  RH WIND       PRES   REMARKS
WEST MEMPHIS   MOCLDY    63  52  67 SE5       29.93F
$$

ARZ050-053-066-070-073-210200-
SOUTHWEST ARKANSAS

CITY           SKY/WX    TMP DP  RH WIND       PRES   REMARKS
ARKADELPHIA    LGT RAIN  61  59  93 SW3       29.94F
CAMDEN         RAIN      59  55  88 W7        29.95R
TEXARKANA      LGT RAIN  59  58  96 SE6       29.96R
EL DORADO      HVY RAIN  60  59  96 W8        29.97R FOG
DE QUEEN       RAIN      60  60 100 W16       29.94R
$$

ARZ056-057-069-210200-
SOUTHEAST ARKANSAS

CITY           SKY/WX    TMP DP  RH WIND       PRES   REMARKS
PINE BLUFF     LGT RAIN  66  63  90 W9        29.89S
STUTTGART      CLOUDY    70  55  60 E8        29.90F
MONTICELLO     MOCLDY    73  60  63 VRB3      29.86F

$$






USA.gov is the U.S. government's official web portal to all federal, state and local government web resources and services.